Location: Bu�n Treun
(12.1333°N, 108.3167°E)
Time: 08:29:53
(UTC+00:00)

N. Korean satellite - Pass Details

Date: 20 June 2021
Orbit: 451 x 497 km, 97.2° (Epoch: 27 July)

Event Time Altitude Azimuth Distance (km) Brightness Sun altitude
Rises 21:52:19 0° 9° (N) 2,559 10.8 -7.7°
Reaches altitude 10° 21:54:22 10° 7° (N) 1,683 9.8 -7.3°
Maximum altitude 21:58:00 78° 281° (W) 509 6.6 -6.5°
Drops below altitude 10° 22:01:38 10° 195° (SSW) 1,693 8.9 -5.7°
Sets 22:03:43 0° 193° (SSW) 2,576 9.9 -5.2°
